Regional Weather Roundup
Issued by NWS

Home | Current Version | Previous Version | Graphics & Text | Print | Product List | Glossary On
Versions: 1 2 3 4 5 6 7 8 9 10 11 12 13 14 15 16 17 18 19 20 21 22 23 24 25 26 27 28 29 30 31 32 33 34 35 36 37 38 39 40 41 42 43 44 45 46 47 48 49 50
168
ASUS45 KCYS 082010
RWRWY

WYOMING REGIONAL WEATHER ROUNDUP
NATIONAL WEATHER SERVICE CHEYENNE WY
100 PM MST MON FEB 08 2016

NOTE:  "FAIR" INDICATES FEW OR NO CLOUDS BELOW 12,000 FEET
WITH NO SIGNIFICANT WEATHER AND/OR OBSTRUCTIONS TO VISIBILITY.

WYZ001-082100-
YELLOWSTONE NATIONAL PARK

CITY           SKY/WX    TMP DP  RH WIND       PRES   REMARKS
LK YELLOWSTONE   N/A     26  16  65 E5        30.58F WCI  20
W YELLOWSTONE  NOT AVBL

$$
WYZ002>013-054>058-071-098>099-082100-
NORTHERN WYOMING

CITY           SKY/WX    TMP DP  RH WIND       PRES   REMARKS
JACKSON        SUNNY     25  19  80 CALM      30.61F
CODY           FAIR      52  25  35 NE7       30.38F
GREYBULL       FAIR      40  19  43 SE6       30.43F
WORLAND        FAIR      39  22  50 NE5       30.42F
SHERIDAN       FAIR      50  29  44 NW22      30.34F
BUFFALO        FAIR      47  29  49 N12       30.33F
GILLETTE       CLOUDY    41  24  51 NW21      30.32F
HULETT         CLOUDY    36  12  38 W6        30.33S WCI  31
NEWCASTLE      FAIR      37   9  30 NW24      30.29F WCI  26

$$
WYZ014>020-022>026-101>103-082100-
CENTRAL WYOMING

CITY           SKY/WX    TMP DP  RH WIND       PRES   REMARKS
BIG PINEY      FAIR      38  25  59 N16       30.52F WCI  29
PINEDALE       FAIR      36  25  64 W23G32    30.49F WCI  24
DUBOIS         FAIR      43  14  31 W21G38    30.44S
LANDER         FAIR      34  21  59 CALM      30.42F
RIVERTON       FAIR      30  19  63 E3        30.44F
CASPER         FAIR      35  22  58 SW21      30.39F WCI  24
DOUGLAS        CLOUDY    40  23  50 NW15        N/A  WCI  32

$$
WYZ021-027>030-104>119-082100-
SOUTHERN WYOMING

CITY           SKY/WX    TMP DP  RH WIND       PRES   REMARKS
EVANSTON       FAIR      25  16  68 CALM      30.61F
KEMMERER       FAIR      37  25  60 W12       30.57F WCI  30
FORT BRIDGER   CLEAR     37  25  60 W16       30.61F WCI  28
ROCK SPRINGS   FAIR      35  24  64 SW13      30.52F WCI  26
DIXON          FAIR      30  20  66 CALM      30.58S
RAWLINS        FAIR      33  21  61 SW28G35   30.46F WCI  20
SARATOGA       FAIR      36  23  60 SW8G16    30.49F WCI  29
LARAMIE        FAIR      39  25  57 NW26G35   30.37F WCI  28
CHEYENNE       FAIR      41  23  48 NW25G39   30.33F
TORRINGTON     CLOUDY    41  21  44 W15       30.31F
PINE BLUFFS    CLOUDY    39  27  60 NW22      30.33F WCI  29

$$




USA.gov is the U.S. government's official web portal to all federal, state and local government web resources and services.